Regional Weather Roundup
Issued by NWS

Home | Current Version | Previous Version | Graphics & Text | Print | Product List | Glossary On
Versions: 1 2 3 4 5 6 7 8 9 10 11 12 13 14 15 16 17 18 19 20 21 22 23 24 25 26 27 28 29 30 31 32 33 34 35 36 37 38 39 40 41 42 43 44 45 46 47 48 49 50
000
ASUS43 KIND 302259
RWRIN

WEATHER ROUNDUP FOR INDIANA
NATIONAL WEATHER SERVICE INDIANAPOLIS IN
700 PM EDT SAT MAY 30 2015

NOTE: "FAIR" INDICATES FEW OR NO CLOUDS BELOW 12,000 FEET WITH NO
SIGNIFICANT WEATHER AND/OR OBSTRUCTIONS TO VISIBILITY.

* - STATION DOES NOT REPORT WEATHER SUCH AS PRECIPITATION OR FOG.

+ - STATION NOT QUALITY CONTROLLED BY THE NATIONAL WEATHER SERVICE.
    USE DATA WITH CAUTION...ESPECIALLY DEWPOINT AND RELATIVE
    HUMIDITY OBSERVATIONS.

INZ001>003-010>013-019-020-310000-
NORTHWEST INDIANA

CITY           SKY/WX    TMP DP  RH WIND       PRES   REMARKS
GARY /AIRPORT/ RAIN      48  48 100 N24       30.06S
VALPARAISO     RAIN      49  47  93 N13       29.97F

$$

LMZ046-743>745-310000-
SOUTHERN LAKE MICHIGAN

STATION/POSITION TIME  TEMP    WIND        PRES    WAVE
                       AIR SEA DIR/SP/G            HT
                 (UTC) (F)     (DEG/KT/KT) (MB)    (FT)
BURNS HARBOR     2200   48      10/ 16/ 19 1017.3F
MICHIGAN CITY    2200   48     360/ 17/ 20   N/A
5NW MICH CITY    2200   48 55   40/ 16/ 21   N/A     7

$$

INZ004-005-014>016-021>024-310000-
NORTH CENTRAL INDIANA

CITY           SKY/WX    TMP DP  RH WIND       PRES   REMARKS
GOSHEN         RAIN      66  64  93 N15       29.96S FOG
SOUTH BEND     RAIN      60  59  96 N10       29.98F FOG

$$

INZ006>009-017-018-025>027-310000-
NORTHEAST INDIANA

CITY           SKY/WX    TMP DP  RH WIND       PRES   REMARKS
ANGOLA *+      CLOUDY    70  63  78 N3        29.96F
FORT WAYNE     TSTM      71  69  93 SW15      29.96R VSB 3/4

$$

INZ028-029-035-036-043>045-051>053-310000-
WEST CENTRAL INDIANA

CITY           SKY/WX    TMP DP  RH WIND       PRES   REMARKS
GREENCASTLE +  HVY RAIN  68  63  83 S20       29.95R VSB 1/2
LAFAYETTE      PTSUNNY   71  67  87 NE3       29.91S
TERRE HAUTE    CLOUDY    72  69  90 W9        29.91R THUNDER

$$

INZ030>032-037>040-046>048-054>057-064-065-310000-
CENTRAL INDIANA

CITY           SKY/WX    TMP DP  RH WIND       PRES   REMARKS
GREENWOOD *+   PTSUNNY   81  64  57 S12G17    29.93S
INDIANAPOLIS   PTSUNNY   74  66  76 NW5       29.90F
-EAGLE CREEK   PTSUNNY   73  67  81 VRB3      29.91S
KOKOMO *+      CLOUDY    66  64  94 E7        29.94S
MT COMFORT *+  PTSUNNY   73  64  73 N9        29.94F
SHELBYVILLE    CLOUDY    83  66  56 S15       29.91S

$$

INZ033-034-041-042-049-050-058-059-310000-
EAST CENTRAL INDIANA

CITY           SKY/WX    TMP DP  RH WIND       PRES   REMARKS
MUNCIE         RAIN      67  65  93 W5        29.96F FOG

$$

INZ060-061-067>069-081>083-085>088-310000-
SOUTHWEST INDIANA

CITY           SKY/WX    TMP DP  RH WIND       PRES   REMARKS
EVANSVILLE     CLOUDY    72  65  78 S14G21    29.91F
HUNTINGBURG *+ PTSUNNY   70  64  83 SW10      29.93R

$$

INZ062-063-066-070>080-084-089>092-310000-
SOUTH CENTRAL AND SOUTHEAST INDIANA

CITY           SKY/WX    TMP DP  RH WIND       PRES   REMARKS
BLOOMINGTON    PTSUNNY   75  69  81 S5        29.91S
MADISON *+     MOSUNNY   79  63  57 S14       29.96F
SEYMOUR +      LGT RAIN  73  66  78 S13       29.92S

$$




USA.gov is the U.S. government's official web portal to all federal, state and local government web resources and services.